Find Starlink 2537

NORAD ID: 48301 Int'l Des: 2021-036 Owner: SPXS Country: US Constellation: starlink operational
LEOCIRCULARSTARLINK_TYPE

当前视图

正在加载3D地球...

About Starlink 2537

Starlink 2537 (NORAD 48301) is a starlink constellation satellite (v1.0) launched Apr 29, 2021 by SPXS of US. It operates in LEO, CIRCULAR, STARLINK_TYPE orbit with a mass of 260.00 kg.

即将过境

Passes for default location (London). Set your location on the main map for personalized predictions.

高度历史

Loading altitude history...

两行轨道根数

1 48301U 21036AB 26263.54868186 .00000688 00000-0 33913-4 0 9998
2 48301 53.1604 264.3340 0001170 74.3191 285.7940 15.31704159298036
Epoch: Sep 20, 2026 • Age: 14 hours

当前状态

高度 471.2 km
远地点 / 近地点 N/A
速度 7.63 km/s
星下点 1.50°N, 146.36°W
发射日期 Apr 29, 2021
运行时间 5.3 years
类型 internet

技术详情

分类 Payload
质量 260.00 kg
干质量 248.00 kg
长度 0.20 m
跨度 9.00 m
形状 ? Box + pan
制造商 SPXS
平台类型 Starlink
阶段状态 In Orbit
所有者/国家 SPXS/US

Most Searched